Date String (YYYY-MM-DD hh:mm:ss) UTC,Instrument flags,absolute air pressure of the measurement (hPa),sample flow rate (lpm),inlet stack bypass flow (lpm),air temperature of the measurement (°C),ambient temperature measured by the external sensor (°C),aerosol sample conditioner tube jacket temperature (°C),OPC LED temperature (°C),internal box temperature (°C),relative humidity of the measurement (%),span deviation,mass concentration of particles derived from Lorenz-Mie calculation of OPC scattering (μg/m³),mass concentration of particles derived from Lorenz-Mie calculation of OPC scattering (μg/m³),mass concentration of particles derived from Lorenz-Mie calculation of OPC scattering (μg/m³)
DateTimeUTC,F1_M11,P_M11,Q1_M11,Q2_M11,T1_M11,T2_M11,T3_M11,T4_M11,T5_M11,U1_M11,ZSPAN_M11,X2_M11,X0_M11,X1_M11
2023-12-12 21:00:00,SystemResetWarning,0832.5,5.00,000.00,019.8,018.9,000.0,028.2,021.1,20.9,0000.0,0005.00,0009.39,0004.51
2023-12-12 21:01:00,SystemResetWarning,0832.5,5.00,000.00,019.9,018.9,000.0,028.2,021.1,20.9,0000.0,0004.98,0009.16,0004.53
2023-12-12 21:02:00,SystemResetWarning,0832.6,5.00,000.00,019.9,018.9,000.0,028.1,021.1,20.9,0000.0,0004.97,0009.06,0004.56
2023-12-12 21:03:00,SystemResetWarning,0832.6,5.00,000.00,019.9,018.9,000.0,028.1,021.1,20.9,0000.0,0005.00,0009.03,0004.62
2023-12-12 21:04:00,SystemResetWarning,0832.6,5.00,000.00,019.8,018.9,000.0,028.1,021.1,20.9,0000.0,0005.04,0008.52,0004.67
2023-12-12 21:05:00,SystemResetWarning,0832.5,5.00,000.00,019.9,018.9,000.0,028.1,021.1,20.9,0000.0,0005.06,0008.57,0004.70
2023-12-12 21:06:00,SystemResetWarning,0832.5,5.00,000.00,019.9,018.9,000.0,028.2,021.1,20.9,0000.0,0005.09,0008.79,0004.71
2023-12-12 21:07:00,SystemResetWarning,0832.5,5.00,000.00,019.9,018.9,000.0,028.1,021.1,20.8,0000.0,0005.07,0008.81,0004.70
2023-12-12 21:08:00,SystemResetWarning,0832.5,5.00,000.00,019.9,018.9,000.0,028.1,021.1,20.8,0000.0,0005.07,0008.49,0004.69
2023-12-12 21:09:00,SystemResetWarning,0832.5,5.00,000.00,019.9,018.9,000.0,028.1,021.1,20.8,0000.0,0005.10,0008.32,0004.71
2023-12-12 21:10:00,SystemResetWarning,0832.6,5.01,000.00,019.9,018.9,000.0,028.1,021.1,20.8,0000.0,0005.09,0008.44,0004.73
2023-12-12 21:11:00,SystemResetWarning,0832.6,5.00,000.00,019.9,019.0,000.0,028.1,021.1,20.8,0000.0,0005.10,0008.59,0004.74
2023-12-12 21:12:00,SystemResetWarning,0832.5,5.00,000.00,019.9,019.0,000.0,028.1,021.1,20.8,0000.0,0005.13,0008.82,0004.74
2023-12-12 21:13:00,SystemResetWarning,0832.5,5.00,000.00,019.9,019.0,000.0,028.1,021.1,20.8,0000.0,0005.16,0009.32,0004.74
2023-12-12 21:14:00,SystemResetWarning,0832.5,4.98,000.00,019.9,019.0,000.0,028.1,021.1,20.8,0000.0,0005.17,0009.49,0004.74
2023-12-12 21:15:00,SystemResetWarning,0832.5,5.00,000.00,019.9,019.0,000.0,028.1,021.1,20.8,0000.0,0005.15,0009.60,0004.72
2023-12-12 21:16:00,SystemResetWarning,0832.5,5.00,000.00,019.9,019.0,000.0,028.1,021.1,20.8,0000.0,0005.15,0009.43,0004.70
2023-12-12 21:17:00,SystemResetWarning,0832.6,5.01,000.00,019.9,019.0,000.0,028.2,021.1,20.8,0000.0,0005.19,0009.52,0004.72
2023-12-12 21:18:00,SystemResetWarning,0832.6,5.01,000.00,019.9,019.0,000.0,028.2,021.1,20.8,0000.0,0005.23,0009.71,0004.74
2023-12-12 21:19:00,SystemResetWarning,0832.6,4.99,000.00,019.9,019.0,000.0,028.2,021.1,20.7,0000.0,0005.20,0010.02,0004.73
2023-12-12 21:20:00,SystemResetWarning,0832.6,5.00,000.00,019.9,019.0,000.0,028.2,021.2,20.7,0000.0,0005.12,0010.11,0004.69
2023-12-12 21:21:00,SystemResetWarning,0832.7,5.00,000.00,019.9,019.0,000.0,028.2,021.1,20.7,0000.0,0005.08,0009.94,0004.65
2023-12-12 21:22:00,SystemResetWarning,0832.7,4.99,000.00,019.9,019.0,000.0,028.2,021.1,20.7,0000.0,0005.07,0009.78,0004.65
2023-12-12 21:23:00,SystemResetWarning,0832.7,5.00,000.00,019.9,019.0,000.0,028.2,021.1,20.7,0000.0,0005.06,0010.37,0004.65
2023-12-12 21:24:00,SystemResetWarning,0832.6,5.00,000.00,019.9,019.0,000.0,028.1,021.1,20.7,0000.0,0005.05,0009.83,0004.66
2023-12-12 21:25:00,SystemResetWarning,0832.7,5.01,000.00,019.9,019.0,000.0,028.1,021.2,20.7,0000.0,0005.05,0009.70,0004.65
2023-12-12 21:26:00,SystemResetWarning,0832.7,5.00,000.00,019.9,019.0,000.0,028.2,021.2,20.7,0000.0,0005.05,0009.65,0004.65
2023-12-12 21:27:00,SystemResetWarning,0832.6,5.00,000.00,019.9,019.0,000.0,028.2,021.1,20.7,0000.0,0005.10,0009.62,0004.67
2023-12-12 21:28:00,SystemResetWarning,0832.7,5.00,000.00,019.9,019.0,000.0,028.2,021.1,20.7,0000.0,0005.10,0009.35,0004.68
2023-12-12 21:29:00,SystemResetWarning,0832.7,5.01,000.00,019.9,019.0,000.0,028.2,021.1,20.7,0000.0,0005.09,0009.15,0004.71
2023-12-12 21:30:00,SystemResetWarning,0832.7,5.00,000.00,019.9,019.0,000.0,028.2,021.1,20.6,0000.0,0005.10,0008.86,0004.72
2023-12-12 21:31:00,SystemResetWarning,0832.7,4.99,000.00,019.9,019.0,000.0,028.2,021.1,20.6,0000.0,0005.16,0008.65,0004.75
2023-12-12 21:32:00,SystemResetWarning,0832.7,4.99,000.00,019.9,019.0,000.0,028.2,021.1,20.6,0000.0,0005.21,0008.78,0004.77
2023-12-12 21:33:00,SystemResetWarning,0832.7,4.99,000.00,019.9,019.0,000.0,028.2,021.1,20.7,0000.0,0005.20,0008.68,0004.76
2023-12-12 21:34:00,SystemResetWarning,0832.7,5.00,000.00,019.9,019.0,000.0,028.2,021.1,20.7,0000.0,0005.19,0008.17,0004.75
2023-12-12 21:35:00,SystemResetWarning,0832.9,5.00,000.00,019.9,019.0,000.0,028.2,021.1,20.7,0000.0,0005.20,0008.09,0004.74
2023-12-12 21:36:00,SystemResetWarning,0832.8,5.00,000.00,019.9,019.0,000.0,028.2,021.1,20.7,0000.0,0005.19,0008.14,0004.71
2023-12-12 21:37:00,SystemResetWarning,0832.7,5.01,000.00,019.9,019.0,000.0,028.1,021.1,20.7,0000.0,0005.18,0008.29,0004.68
2023-12-12 21:38:00,SystemResetWarning,0832.8,5.00,000.00,019.9,019.0,000.0,028.1,021.1,20.7,0000.0,0005.15,0008.56,0004.64
2023-12-12 21:39:00,SystemResetWarning,0832.9,5.01,000.00,019.9,019.0,000.0,028.2,021.1,20.7,0000.0,0005.11,0008.60,0004.60
2023-12-12 21:40:00,SystemResetWarning,0833.4,5.00,000.00,019.9,019.0,000.0,028.2,021.1,20.7,0000.0,0005.11,0008.76,0004.55
2023-12-12 21:41:00,SystemResetWarning,0833.3,5.00,000.00,019.9,019.0,000.0,028.1,021.1,20.7,0000.0,0005.09,0009.09,0004.51
2023-12-12 21:42:00,SystemResetWarning,0833.1,5.00,000.00,019.9,019.0,000.0,028.2,021.1,20.7,0000.0,0005.05,0009.32,0004.48
2023-12-12 21:43:00,SystemResetWarning,0833.3,5.00,000.00,019.9,019.0,000.0,028.2,021.1,20.7,0000.0,0005.02,0009.83,0004.46
2023-12-12 21:44:00,SystemResetWarning,0833.3,5.00,000.00,019.9,019.0,000.0,028.2,021.1,20.7,0000.0,0005.01,0010.00,0004.46
2023-12-12 21:45:00,SystemResetWarning,0833.0,5.00,000.00,019.9,019.0,000.0,028.2,021.1,20.7,0000.0,0005.05,0010.16,0004.46
2023-12-12 21:46:00,SystemResetWarning,0833.0,5.00,000.00,019.9,019.0,000.0,028.2,021.1,20.8,0000.0,0005.06,0010.33,0004.47
2023-12-12 21:47:00,SystemResetWarning,0833.0,5.00,000.00,019.9,019.0,000.0,028.1,021.1,20.8,0000.0,0005.04,0010.51,0004.47
2023-12-12 21:48:00,SystemResetWarning,0832.9,5.00,000.00,019.9,019.0,000.0,028.2,021.1,20.7,0000.0,0005.09,0010.60,0004.49
2023-12-12 21:49:00,SystemResetWarning,0833.4,5.00,000.00,019.9,019.0,000.0,028.2,021.1,20.7,0000.0,0005.10,0010.40,0004.50
2023-12-12 21:50:00,SystemResetWarning,0833.2,5.00,000.00,019.9,019.0,000.0,028.2,021.1,20.7,0000.0,0005.11,0010.84,0004.51
2023-12-12 21:51:00,SystemResetWarning,0833.0,5.01,000.00,019.9,018.9,000.0,028.1,021.1,20.7,0000.0,0005.09,0010.87,0004.52
2023-12-12 21:52:00,SystemResetWarning,0833.0,5.00,000.00,019.8,018.9,000.0,028.1,021.1,20.7,0000.0,0005.10,0010.70,0004.52
2023-12-12 21:53:00,SystemResetWarning,0833.0,5.00,000.00,019.8,018.9,000.0,028.1,021.1,20.8,0000.0,0005.11,0011.43,0004.52
2023-12-12 21:54:00,SystemResetWarning,0833.3,5.00,000.00,019.8,018.9,000.0,028.1,021.1,20.8,0000.0,0005.14,0012.42,0004.53
2023-12-12 21:55:00,SystemResetWarning,0833.1,5.00,000.00,019.8,018.9,000.0,028.1,021.1,20.8,0000.0,0005.18,0012.38,0004.53
2023-12-12 21:56:00,SystemResetWarning,0833.1,5.00,000.00,019.8,018.9,000.0,028.1,021.1,20.8,0000.0,0005.19,0012.24,0004.53
2023-12-12 21:57:00,SystemResetWarning,0833.1,5.00,000.00,019.8,018.9,000.0,028.1,021.0,20.8,0000.0,0005.16,0012.17,0004.53
2023-12-12 21:58:00,SystemResetWarning,0833.1,5.00,000.00,019.8,018.9,000.0,028.1,021.0,20.8,0000.0,0005.17,0012.26,0004.54
2023-12-12 21:59:00,SystemResetWarning,0833.1,5.00,000.00,019.8,018.9,000.0,028.1,021.1,20.8,0000.0,0005.13,0012.69,0004.54
